Time,TemperatureF,DewpointF,PressureIn,WindDirection,WindDirectionDegrees,WindSpeedMPH,WindSpeedGustMPH,Humidity,HourlyPrecipIn,Conditions,Clouds,dailyrainin,SoftwareType,DateUTC
2013-02-16 00:03:00,42.7,37.9,30.33,East,79,0.0,0.0,83,0.00,,,0.00,VWS V14.01,2013-02-16 08:03:00,
2013-02-16 00:08:00,42.5,37.7,30.33,East,79,0.0,0.0,83,0.00,,,0.00,VWS V14.01,2013-02-16 08:08:00,
2013-02-16 00:13:00,42.4,37.9,30.33,East,79,0.0,0.0,84,0.00,,,0.00,VWS V14.01,2013-02-16 08:13:00,
2013-02-16 00:17:00,42.4,37.9,30.33,East,79,0.0,0.0,84,0.00,,,0.00,VWS V14.01,2013-02-16 08:17:00,
2013-02-16 00:22:00,42.3,37.8,30.33,East,79,0.0,0.0,84,0.00,,,0.00,VWS V14.01,2013-02-16 08:22:00,
2013-02-16 00:27:00,42.3,37.8,30.33,East,79,0.0,0.0,84,0.00,,,0.00,VWS V14.01,2013-02-16 08:27:00,
2013-02-16 00:32:00,42.2,37.7,30.32,East,79,0.0,0.0,84,0.00,,,0.00,VWS V14.01,2013-02-16 08:32:00,
2013-02-16 00:37:00,41.9,37.4,30.33,East,79,0.0,0.0,84,0.00,,,0.00,VWS V14.01,2013-02-16 08:37:00,
2013-02-16 00:42:00,41.8,37.6,30.33,East,79,0.0,0.0,85,0.00,,,0.00,VWS V14.01,2013-02-16 08:42:00,
2013-02-16 00:47:00,41.7,37.5,30.33,East,79,0.0,0.0,85,0.00,,,0.00,VWS V14.01,2013-02-16 08:47:00,
2013-02-16 00:52:00,41.5,37.3,30.33,East,79,0.0,0.0,85,0.00,,,0.00,VWS V14.01,2013-02-16 08:52:00,
2013-02-16 00:57:00,41.4,37.2,30.33,East,79,0.0,0.0,85,0.00,,,0.00,VWS V14.01,2013-02-16 08:57:00,
2013-02-16 01:02:00,41.3,37.1,30.33,East,79,0.0,0.0,85,0.00,,,0.00,VWS V14.01,2013-02-16 09:02:00,
2013-02-16 01:07:00,41.0,36.5,30.33,East,79,0.0,0.0,84,0.00,,,0.00,VWS V14.01,2013-02-16 09:07:00,
2013-02-16 01:12:00,40.7,36.8,30.33,East,79,0.0,0.0,86,0.00,,,0.00,VWS V14.01,2013-02-16 09:12:00,
2013-02-16 01:17:00,40.4,36.5,30.33,East,79,0.0,0.0,86,0.00,,,0.00,VWS V14.01,2013-02-16 09:17:00,
2013-02-16 01:22:00,40.5,36.9,30.32,East,79,0.0,0.0,87,0.00,,,0.00,VWS V14.01,2013-02-16 09:22:00,
2013-02-16 01:27:00,40.7,36.8,30.33,East,79,0.0,0.0,86,0.00,,,0.00,VWS V14.01,2013-02-16 09:27:00,
2013-02-16 01:32:00,40.7,36.8,30.32,East,79,0.0,0.0,86,0.00,,,0.00,VWS V14.01,2013-02-16 09:32:00,
2013-02-16 01:37:00,40.7,36.8,30.32,East,79,0.0,0.0,86,0.00,,,0.00,VWS V14.01,2013-02-16 09:37:00,
2013-02-16 01:42:00,40.6,36.8,30.32,East,79,0.0,0.0,86,0.00,,,0.00,VWS V14.01,2013-02-16 09:42:00,
2013-02-16 01:47:00,40.3,36.5,30.32,East,79,0.0,0.0,86,0.00,,,0.00,VWS V14.01,2013-02-16 09:47:00,
2013-02-16 01:52:00,40.1,36.5,30.32,East,79,0.0,0.0,87,0.00,,,0.00,VWS V14.01,2013-02-16 09:52:00,
2013-02-16 01:57:00,40.3,36.8,30.32,East,79,0.0,0.0,87,0.00,,,0.00,VWS V14.01,2013-02-16 09:57:00,
2013-02-16 02:02:00,40.3,36.8,30.32,East,79,0.0,0.0,87,0.00,,,0.00,VWS V14.01,2013-02-16 10:02:00,
2013-02-16 02:07:00,40.3,36.8,30.32,East,79,0.0,0.0,87,0.00,,,0.00,VWS V14.01,2013-02-16 10:07:00,
2013-02-16 02:12:00,40.2,36.7,30.32,East,79,0.0,0.0,87,0.00,,,0.00,VWS V14.01,2013-02-16 10:12:00,
2013-02-16 02:17:00,40.2,36.7,30.32,East,79,0.0,0.0,87,0.00,,,0.00,VWS V14.01,2013-02-16 10:17:00,
2013-02-16 02:22:00,40.0,36.5,30.32,East,81,0.0,0.0,87,0.00,,,0.00,VWS V14.01,2013-02-16 10:22:00,
2013-02-16 02:27:00,39.8,36.2,30.32,East,81,0.0,0.0,87,0.00,,,0.00,VWS V14.01,2013-02-16 10:27:00,
2013-02-16 02:32:00,39.7,36.2,30.31,East,80,0.0,0.0,87,0.00,,,0.00,VWS V14.01,2013-02-16 10:32:00,
2013-02-16 02:37:00,39.5,36.0,30.32,East,81,0.0,0.0,87,0.00,,,0.00,VWS V14.01,2013-02-16 10:37:00,
2013-02-16 02:42:00,39.3,36.0,30.31,East,81,0.0,0.0,88,0.00,,,0.00,VWS V14.01,2013-02-16 10:42:00,
2013-02-16 02:47:00,39.2,36.0,30.31,East,81,0.0,0.0,88,0.00,,,0.00,VWS V14.01,2013-02-16 10:47:00,
2013-02-16 02:52:00,39.1,35.8,30.31,East,81,0.0,0.0,88,0.00,,,0.00,VWS V14.01,2013-02-16 10:52:00,
2013-02-16 02:57:00,39.0,35.8,30.31,East,81,0.0,0.0,88,0.00,,,0.00,VWS V14.01,2013-02-16 10:57:00,
2013-02-16 03:02:00,38.8,35.8,30.31,East,81,0.0,0.0,89,0.00,,,0.00,VWS V14.01,2013-02-16 11:02:00,
2013-02-16 03:07:00,38.7,35.7,30.31,East,81,0.0,0.0,89,0.00,,,0.00,VWS V14.01,2013-02-16 11:07:00,
2013-02-16 03:12:00,38.7,35.7,30.31,East,81,0.0,0.0,89,0.00,,,0.00,VWS V14.01,2013-02-16 11:12:00,
2013-02-16 03:17:00,38.6,35.6,30.31,East,81,0.0,0.0,89,0.00,,,0.00,VWS V14.01,2013-02-16 11:17:00,
2013-02-16 03:22:00,38.4,35.5,30.31,East,80,0.0,0.0,89,0.00,,,0.00,VWS V14.01,2013-02-16 11:22:00,
2013-02-16 03:27:00,38.5,35.8,30.31,East,81,0.0,0.0,90,0.00,,,0.00,VWS V14.01,2013-02-16 11:27:00,
2013-02-16 03:32:00,38.6,35.9,30.31,East,80,0.0,0.0,90,0.00,,,0.00,VWS V14.01,2013-02-16 11:32:00,
2013-02-16 03:37:00,38.5,35.5,30.30,East,81,0.0,0.0,89,0.00,,,0.00,VWS V14.01,2013-02-16 11:37:00,
2013-02-16 03:42:00,38.3,35.3,30.30,East,81,0.0,0.0,89,0.00,,,0.00,VWS V14.01,2013-02-16 11:42:00,
2013-02-16 03:47:00,38.0,35.0,30.30,East,81,0.0,0.0,89,0.00,,,0.00,VWS V14.01,2013-02-16 11:47:00,
2013-02-16 03:52:00,37.9,35.2,30.30,East,81,0.0,0.0,90,0.00,,,0.00,VWS V14.01,2013-02-16 11:52:00,
2013-02-16 03:57:00,38.0,35.6,30.30,East,81,0.0,0.0,91,0.00,,,0.00,VWS V14.01,2013-02-16 11:57:00,
2013-02-16 04:02:00,38.0,35.6,30.30,East,81,0.0,0.0,91,0.00,,,0.00,VWS V14.01,2013-02-16 12:02:00,
2013-02-16 04:07:00,38.0,35.6,30.29,East,81,0.0,0.0,91,0.00,,,0.00,VWS V14.01,2013-02-16 12:07:00,
2013-02-16 04:12:00,37.9,35.5,30.29,East,81,0.0,0.0,91,0.00,,,0.00,VWS V14.01,2013-02-16 12:12:00,
2013-02-16 04:17:00,37.8,35.4,30.30,East,81,0.0,0.0,91,0.00,,,0.00,VWS V14.01,2013-02-16 12:17:00,
2013-02-16 04:22:00,37.8,35.4,30.30,East,81,0.0,0.0,91,0.00,,,0.00,VWS V14.01,2013-02-16 12:22:00,
2013-02-16 04:27:00,37.8,35.4,30.30,East,81,0.0,0.0,91,0.00,,,0.00,VWS V14.01,2013-02-16 12:27:00,
2013-02-16 04:32:00,37.7,35.3,30.29,East,80,0.0,0.0,91,0.00,,,0.00,VWS V14.01,2013-02-16 12:32:00,
2013-02-16 04:37:00,37.7,35.3,30.29,East,81,0.0,0.0,91,0.00,,,0.00,VWS V14.01,2013-02-16 12:37:00,
2013-02-16 04:42:00,37.6,34.9,30.29,East,80,0.0,0.0,90,0.00,,,0.00,VWS V14.01,2013-02-16 12:42:00,
2013-02-16 04:47:00,37.5,35.1,30.30,East,80,0.0,0.0,91,0.00,,,0.00,VWS V14.01,2013-02-16 12:47:00,
2013-02-16 04:52:00,37.6,35.2,30.30,East,81,0.0,0.0,91,0.00,,,0.00,VWS V14.01,2013-02-16 12:52:00,
2013-02-16 04:57:00,37.6,35.2,30.30,East,81,0.0,0.0,91,0.00,,,0.00,VWS V14.01,2013-02-16 12:57:00,
2013-02-16 05:02:00,37.7,35.3,30.30,East,81,0.0,0.0,91,0.00,,,0.00,VWS V14.01,2013-02-16 13:02:00,
2013-02-16 05:07:00,37.5,34.8,30.30,East,81,0.0,0.0,90,0.00,,,0.00,VWS V14.01,2013-02-16 13:07:00,
2013-02-16 05:12:00,37.3,34.6,30.30,East,81,0.0,0.0,90,0.00,,,0.00,VWS V14.01,2013-02-16 13:12:00,
2013-02-16 05:17:00,37.3,34.9,30.30,East,81,0.0,0.0,91,0.00,,,0.00,VWS V14.01,2013-02-16 13:17:00,
2013-02-16 05:22:00,37.4,35.0,30.30,East,81,0.0,0.0,91,0.00,,,0.00,VWS V14.01,2013-02-16 13:22:00,
2013-02-16 05:27:00,37.3,34.6,30.30,East,81,0.0,0.0,90,0.00,,,0.00,VWS V14.01,2013-02-16 13:27:00,
2013-02-16 05:32:00,37.0,34.3,30.30,East,81,0.0,0.0,90,0.00,,,0.00,VWS V14.01,2013-02-16 13:32:00,
2013-02-16 05:37:00,37.2,35.1,30.30,East,81,0.0,0.0,92,0.00,,,0.00,VWS V14.01,2013-02-16 13:37:00,
2013-02-16 05:42:00,37.3,34.9,30.29,East,81,0.0,0.0,91,0.00,,,0.00,VWS V14.01,2013-02-16 13:42:00,
2013-02-16 05:47:00,37.3,34.9,30.29,East,81,0.0,0.0,91,0.00,,,0.00,VWS V14.01,2013-02-16 13:47:00,
2013-02-16 05:52:00,37.2,34.8,30.29,East,81,0.0,0.0,91,0.00,,,0.00,VWS V14.01,2013-02-16 13:52:00,
2013-02-16 05:57:00,36.9,34.2,30.29,East,81,0.0,0.0,90,0.00,,,0.00,VWS V14.01,2013-02-16 13:57:00,
2013-02-16 06:02:00,36.8,34.4,30.29,East,81,0.0,0.0,91,0.00,,,0.00,VWS V14.01,2013-02-16 14:02:00,
2013-02-16 06:07:00,36.7,34.3,30.29,East,81,0.0,0.0,91,0.00,,,0.00,VWS V14.01,2013-02-16 14:07:00,
2013-02-16 06:12:00,36.6,34.2,30.29,East,81,0.0,0.0,91,0.00,,,0.00,VWS V14.01,2013-02-16 14:12:00,
2013-02-16 06:17:00,36.7,34.6,30.29,SSW,195,1.0,1.0,92,0.00,,,0.00,VWS V14.01,2013-02-16 14:17:00,
2013-02-16 06:22:00,37.0,34.9,30.29,SSW,197,0.0,1.0,92,0.00,,,0.00,VWS V14.01,2013-02-16 14:22:00,
2013-02-16 06:27:00,37.0,34.9,30.29,SSW,197,0.0,1.0,92,0.00,,,0.00,VWS V14.01,2013-02-16 14:27:00,
2013-02-16 06:32:00,37.1,35.0,30.29,SSW,197,0.0,0.0,92,0.00,,,0.00,VWS V14.01,2013-02-16 14:32:00,
2013-02-16 06:37:00,37.4,35.3,30.29,SSW,197,0.0,0.0,92,0.00,,,0.00,VWS V14.01,2013-02-16 14:37:00,
2013-02-16 06:42:00,37.3,34.9,30.29,SSW,197,0.0,0.0,91,0.00,,,0.00,VWS V14.01,2013-02-16 14:42:00,
2013-02-16 06:47:00,37.1,34.7,30.29,SSW,197,0.0,0.0,91,0.00,,,0.00,VWS V14.01,2013-02-16 14:47:00,
2013-02-16 06:52:00,36.9,34.5,30.29,SSW,197,0.0,0.0,91,0.00,,,0.00,VWS V14.01,2013-02-16 14:52:00,
2013-02-16 06:57:00,36.8,34.7,30.29,SSW,197,0.0,0.0,92,0.00,,,0.00,VWS V14.01,2013-02-16 14:57:00,
2013-02-16 07:02:00,36.8,34.7,30.30,SSW,197,0.0,0.0,92,0.00,,,0.00,VWS V14.01,2013-02-16 15:02:00,
2013-02-16 07:07:00,36.7,34.6,30.30,SSW,197,0.0,0.0,92,0.00,,,0.00,VWS V14.01,2013-02-16 15:07:00,
2013-02-16 07:12:00,36.6,34.5,30.30,SSW,196,0.0,0.0,92,0.00,,,0.00,VWS V14.01,2013-02-16 15:12:00,
2013-02-16 07:17:00,36.9,35.1,30.30,SSW,197,0.0,0.0,93,0.00,,,0.00,VWS V14.01,2013-02-16 15:17:00,
2013-02-16 07:22:00,37.0,35.2,30.30,SSW,197,0.0,0.0,93,0.00,,,0.00,VWS V14.01,2013-02-16 15:22:00,
2013-02-16 07:27:00,37.2,35.4,30.30,SSW,196,0.0,0.0,93,0.00,,,0.00,VWS V14.01,2013-02-16 15:27:00,
2013-02-16 07:32:00,37.5,35.7,30.30,SSW,197,0.0,0.0,93,0.00,,,0.00,VWS V14.01,2013-02-16 15:32:00,
2013-02-16 07:37:00,37.8,36.0,30.30,SSW,197,0.0,0.0,93,0.00,,,0.00,VWS V14.01,2013-02-16 15:37:00,
2013-02-16 07:42:00,38.0,36.2,30.30,SSW,197,0.0,0.0,93,0.00,,,0.00,VWS V14.01,2013-02-16 15:42:00,
2013-02-16 07:47:00,38.3,36.5,30.30,SSW,197,0.0,0.0,93,0.00,,,0.00,VWS V14.01,2013-02-16 15:47:00,
2013-02-16 07:52:00,38.5,36.7,30.30,SSW,197,0.0,0.0,93,0.00,,,0.00,VWS V14.01,2013-02-16 15:52:00,
2013-02-16 07:57:00,39.0,36.9,30.30,SSW,197,0.0,0.0,92,0.00,,,0.00,VWS V14.01,2013-02-16 15:57:00,
2013-02-16 08:02:00,39.4,37.3,30.30,SSW,197,0.0,0.0,92,0.00,,,0.00,VWS V14.01,2013-02-16 16:02:00,
2013-02-16 08:07:00,39.8,37.7,30.30,SSW,197,0.0,0.0,92,0.00,,,0.00,VWS V14.01,2013-02-16 16:07:00,
2013-02-16 08:12:00,40.2,38.1,30.30,SSW,197,0.0,0.0,92,0.00,,,0.00,VWS V14.01,2013-02-16 16:12:00,
2013-02-16 08:17:00,40.7,38.6,30.30,SSW,197,0.0,0.0,92,0.00,,,0.00,VWS V14.01,2013-02-16 16:17:00,
2013-02-16 08:22:00,41.4,39.0,30.30,SSW,197,0.0,0.0,91,0.00,,,0.00,VWS V14.01,2013-02-16 16:22:00,
2013-02-16 08:27:00,42.0,39.6,30.30,SSW,197,0.0,0.0,91,0.00,,,0.00,VWS V14.01,2013-02-16 16:27:00,
2013-02-16 08:32:00,42.9,40.5,30.30,SSW,197,0.0,0.0,91,0.00,,,0.00,VWS V14.01,2013-02-16 16:32:00,
2013-02-16 08:37:00,43.9,41.2,30.30,SSW,197,0.0,0.0,90,0.00,,,0.00,VWS V14.01,2013-02-16 16:37:00,
2013-02-16 08:42:00,45.2,42.2,30.30,SSW,197,0.0,0.0,89,0.00,,,0.00,VWS V14.01,2013-02-16 16:42:00,
2013-02-16 08:47:00,46.3,42.7,30.30,SSW,197,0.0,0.0,87,0.00,,,0.00,VWS V14.01,2013-02-16 16:47:00,
2013-02-16 08:52:00,47.3,42.7,30.30,SSW,198,0.0,0.0,84,0.00,,,0.00,VWS V14.01,2013-02-16 16:52:00,
2013-02-16 08:57:00,48.5,43.6,30.30,SSW,197,0.0,0.0,83,0.00,,,0.00,VWS V14.01,2013-02-16 16:57:00,
2013-02-16 09:02:00,49.9,44.0,30.30,SSW,197,0.0,0.0,80,0.00,,,0.00,VWS V14.01,2013-02-16 17:02:00,
2013-02-16 09:07:00,51.0,44.4,30.30,SSW,198,0.0,0.0,78,0.00,,,0.00,VWS V14.01,2013-02-16 17:07:00,
2013-02-16 09:12:00,51.8,44.8,30.30,SSW,198,0.0,0.0,77,0.00,,,0.00,VWS V14.01,2013-02-16 17:12:00,
2013-02-16 09:17:00,52.6,44.9,30.30,SSW,198,0.0,0.0,75,0.00,,,0.00,VWS V14.01,2013-02-16 17:17:00,
2013-02-16 09:22:00,53.5,45.4,30.30,West,269,0.0,1.0,74,0.00,,,0.00,VWS V14.01,2013-02-16 17:22:00,
2013-02-16 09:27:00,54.4,46.3,30.30,NW,323,0.0,1.0,74,0.00,,,0.00,VWS V14.01,2013-02-16 17:27:00,
2013-02-16 09:32:00,55.5,46.3,30.29,NW,322,1.0,4.0,71,0.00,,,0.00,VWS V14.01,2013-02-16 17:32:00,
2013-02-16 09:37:00,56.8,46.4,30.29,ENE,73,2.0,4.0,68,0.00,,,0.00,VWS V14.01,2013-02-16 17:37:00,
2013-02-16 09:42:00,57.9,47.0,30.29,NW,325,1.0,4.0,67,0.00,,,0.00,VWS V14.01,2013-02-16 17:42:00,
2013-02-16 09:47:00,58.6,46.9,30.29,ESE,114,1.0,5.0,65,0.00,,,0.00,VWS V14.01,2013-02-16 17:47:00,
2013-02-16 09:52:00,59.0,46.8,30.29,WNW,284,2.0,5.0,64,0.00,,,0.00,VWS V14.01,2013-02-16 17:52:00,
2013-02-16 09:57:00,59.1,47.0,30.29,ENE,65,2.0,5.0,64,0.00,,,0.00,VWS V14.01,2013-02-16 17:57:00,
2013-02-16 10:02:00,58.7,47.0,30.29,ENE,58,0.0,5.0,65,0.00,,,0.00,VWS V14.01,2013-02-16 18:02:00,
2013-02-16 10:07:00,59.1,47.8,30.29,WSW,255,1.0,5.0,66,0.00,,,0.00,VWS V14.01,2013-02-16 18:07:00,
2013-02-16 10:12:00,59.5,47.3,30.29,East,79,1.0,6.0,64,0.00,,,0.00,VWS V14.01,2013-02-16 18:12:00,
2013-02-16 10:17:00,59.6,47.4,30.29,East,82,2.0,6.0,64,0.00,,,0.00,VWS V14.01,2013-02-16 18:17:00,
2013-02-16 10:22:00,59.5,47.3,30.29,NE,43,1.0,6.0,64,0.00,,,0.00,VWS V14.01,2013-02-16 18:22:00,
2013-02-16 10:27:00,60.0,47.8,30.29,North,352,2.0,6.0,64,0.00,,,0.00,VWS V14.01,2013-02-16 18:27:00,
2013-02-16 10:32:00,60.5,48.3,30.29,NNE,20,1.0,4.0,64,0.00,,,0.00,VWS V14.01,2013-02-16 18:32:00,
2013-02-16 10:37:00,60.5,47.9,30.28,NE,46,3.0,5.0,63,0.00,,,0.00,VWS V14.01,2013-02-16 18:37:00,
2013-02-16 10:42:00,60.4,47.8,30.28,North,10,3.0,8.0,63,0.00,,,0.00,VWS V14.01,2013-02-16 18:42:00,
2013-02-16 10:47:00,60.4,48.2,30.28,NNE,33,1.0,8.0,64,0.00,,,0.00,VWS V14.01,2013-02-16 18:47:00,
2013-02-16 10:52:00,60.3,48.1,30.28,ENE,61,2.0,8.0,64,0.00,,,0.00,VWS V14.01,2013-02-16 18:52:00,
2013-02-16 10:57:00,60.5,47.9,30.28,WSW,249,1.0,8.0,63,0.00,,,0.00,VWS V14.01,2013-02-16 18:57:00,
2013-02-16 11:02:00,60.7,48.0,30.28,NW,311,2.0,6.0,63,0.00,,,0.00,VWS V14.01,2013-02-16 19:02:00,
2013-02-16 11:07:00,61.1,48.4,30.28,ENE,72,1.0,6.0,63,0.00,,,0.00,VWS V14.01,2013-02-16 19:07:00,
2013-02-16 11:12:00,61.5,48.8,30.28,ENE,61,4.0,6.0,63,0.00,,,0.00,VWS V14.01,2013-02-16 19:12:00,
2013-02-16 11:17:00,61.3,48.2,30.28,East,92,2.0,6.0,62,0.00,,,0.00,VWS V14.01,2013-02-16 19:17:00,
2013-02-16 11:22:00,61.3,47.8,30.28,ENE,60,2.0,7.0,61,0.00,,,0.00,VWS V14.01,2013-02-16 19:22:00,
2013-02-16 11:27:00,61.6,48.9,30.27,NW,317,1.0,7.0,63,0.00,,,0.00,VWS V14.01,2013-02-16 19:27:00,
2013-02-16 11:32:00,62.1,48.1,30.27,NE,52,2.0,2.0,60,0.00,,,0.00,VWS V14.01,2013-02-16 19:32:00,
2013-02-16 11:37:00,62.0,48.4,30.27,North,4,1.0,7.0,61,0.00,,,0.00,VWS V14.01,2013-02-16 19:37:00,
2013-02-16 11:42:00,62.3,48.7,30.27,WNW,300,3.0,7.0,61,0.00,,,0.00,VWS V14.01,2013-02-16 19:42:00,
2013-02-16 11:47:00,62.6,48.5,30.27,NW,309,1.0,7.0,60,0.00,,,0.00,VWS V14.01,2013-02-16 19:47:00,
2013-02-16 11:52:00,63.1,47.2,30.27,WNW,300,3.0,7.0,56,0.00,,,0.00,VWS V14.01,2013-02-16 19:52:00,
2013-02-16 11:57:00,63.1,47.2,30.26,NE,36,2.0,7.0,56,0.00,,,0.00,VWS V14.01,2013-02-16 19:57:00,
2013-02-16 12:02:00,63.3,46.9,30.26,NNW,347,2.0,3.0,55,0.00,,,0.00,VWS V14.01,2013-02-16 20:02:00,
2013-02-16 12:07:00,63.4,46.0,30.26,NNE,30,4.0,6.0,53,0.00,,,0.00,VWS V14.01,2013-02-16 20:07:00,
2013-02-16 12:12:00,63.9,46.0,30.26,ESE,107,2.0,6.0,52,0.00,,,0.00,VWS V14.01,2013-02-16 20:12:00,
2013-02-16 12:17:00,63.8,45.9,30.26,NE,53,3.0,6.0,52,0.00,,,0.00,VWS V14.01,2013-02-16 20:17:00,
2013-02-16 12:22:00,63.6,46.2,30.25,ENE,61,2.0,6.0,53,0.00,,,0.00,VWS V14.01,2013-02-16 20:22:00,
2013-02-16 12:27:00,63.8,46.4,30.25,East,97,2.0,6.0,53,0.00,,,0.00,VWS V14.01,2013-02-16 20:27:00,
2013-02-16 12:32:00,63.4,46.5,30.25,West,273,1.0,6.0,54,0.00,,,0.00,VWS V14.01,2013-02-16 20:32:00,
2013-02-16 12:37:00,64.2,46.7,30.25,NE,41,1.0,6.0,53,0.00,,,0.00,VWS V14.01,2013-02-16 20:37:00,
2013-02-16 12:42:00,64.3,45.8,30.24,ESE,113,2.0,6.0,51,0.00,,,0.00,VWS V14.01,2013-02-16 20:42:00,
2013-02-16 12:47:00,64.3,45.3,30.24,ENE,65,1.0,6.0,50,0.00,,,0.00,VWS V14.01,2013-02-16 20:47:00,
2013-02-16 12:52:00,64.4,45.4,30.24,NE,54,0.0,6.0,50,0.00,,,0.00,VWS V14.01,2013-02-16 20:52:00,
2013-02-16 12:57:00,64.5,44.9,30.23,ENE,77,2.0,6.0,49,0.00,,,0.00,VWS V14.01,2013-02-16 20:57:00,
2013-02-16 13:02:00,64.6,45.0,30.23,ENE,65,0.0,5.0,49,0.00,,,0.00,VWS V14.01,2013-02-16 21:02:00,
2013-02-16 13:07:00,64.8,46.3,30.23,North,5,2.0,6.0,51,0.00,,,0.00,VWS V14.01,2013-02-16 21:07:00,
2013-02-16 13:12:00,65.3,46.2,30.22,SW,221,1.0,6.0,50,0.00,,,0.00,VWS V14.01,2013-02-16 21:12:00,
2013-02-16 13:17:00,65.2,46.1,30.22,SE,142,1.0,6.0,50,0.00,,,0.00,VWS V14.01,2013-02-16 21:17:00,
2013-02-16 13:22:00,65.5,46.4,30.22,NW,311,1.0,6.0,50,0.00,,,0.00,VWS V14.01,2013-02-16 21:22:00,
2013-02-16 13:27:00,65.9,46.2,30.22,NNE,18,1.0,6.0,49,0.00,,,0.00,VWS V14.01,2013-02-16 21:27:00,
2013-02-16 13:32:00,66.0,46.3,30.22,North,5,1.0,3.0,49,0.00,,,0.00,VWS V14.01,2013-02-16 21:32:00,
2013-02-16 13:37:00,65.9,46.2,30.21,NE,42,0.0,5.0,49,0.00,,,0.00,VWS V14.01,2013-02-16 21:37:00,
2013-02-16 13:42:00,66.0,45.2,30.21,NNE,30,1.0,5.0,47,0.00,,,0.00,VWS V14.01,2013-02-16 21:42:00,
2013-02-16 13:47:00,65.6,45.4,30.21,ENE,60,3.0,6.0,48,0.00,,,0.00,VWS V14.01,2013-02-16 21:47:00,
2013-02-16 13:52:00,64.9,45.3,30.21,NW,316,2.0,7.0,49,0.00,,,0.00,VWS V14.01,2013-02-16 21:52:00,
2013-02-16 13:57:00,65.2,45.0,30.20,WNW,297,2.0,7.0,48,0.00,,,0.00,VWS V14.01,2013-02-16 21:57:00,
2013-02-16 14:02:00,65.7,45.5,30.20,ENE,68,7.0,7.0,48,0.00,,,0.00,VWS V14.01,2013-02-16 22:02:00,
2013-02-16 14:07:00,65.8,44.5,30.20,North,349,2.0,7.0,46,0.00,,,0.00,VWS V14.01,2013-02-16 22:07:00,
2013-02-16 14:12:00,65.8,44.5,30.20,NNW,347,1.0,7.0,46,0.00,,,0.00,VWS V14.01,2013-02-16 22:12:00,
2013-02-16 14:17:00,65.8,45.0,30.20,NE,40,1.0,7.0,47,0.00,,,0.00,VWS V14.01,2013-02-16 22:17:00,
2013-02-16 14:22:00,66.0,44.1,30.19,NNE,25,2.0,7.0,45,0.00,,,0.00,VWS V14.01,2013-02-16 22:22:00,
2013-02-16 14:27:00,66.4,45.6,30.19,ENE,57,1.0,7.0,47,0.00,,,0.00,VWS V14.01,2013-02-16 22:27:00,
2013-02-16 14:32:00,66.6,44.6,30.19,ENE,75,4.0,5.0,45,0.00,,,0.00,VWS V14.01,2013-02-16 22:32:00,
2013-02-16 14:37:00,66.6,44.0,30.19,ESE,117,2.0,5.0,44,0.00,,,0.00,VWS V14.01,2013-02-16 22:37:00,
2013-02-16 14:42:00,66.6,45.2,30.18,NE,38,1.0,6.0,46,0.00,,,0.00,VWS V14.01,2013-02-16 22:42:00,
2013-02-16 14:47:00,67.3,44.7,30.18,ENE,67,4.0,6.0,44,0.00,,,0.00,VWS V14.01,2013-02-16 22:47:00,
2013-02-16 14:52:00,67.0,44.4,30.18,North,4,3.0,6.0,44,0.00,,,0.00,VWS V14.01,2013-02-16 22:52:00,
2013-02-16 14:57:00,66.7,44.7,30.18,East,84,2.0,6.0,45,0.00,,,0.00,VWS V14.01,2013-02-16 22:57:00,
2013-02-16 15:02:00,66.6,44.6,30.18,NE,34,4.0,4.0,45,0.00,,,0.00,VWS V14.01,2013-02-16 23:02:00,
2013-02-16 15:07:00,66.4,45.6,30.17,NE,38,2.0,8.0,47,0.00,,,0.00,VWS V14.01,2013-02-16 23:07:00,
2013-02-16 15:12:00,66.1,45.9,30.17,ENE,71,1.0,8.0,48,0.00,,,0.00,VWS V14.01,2013-02-16 23:12:00,
2013-02-16 15:17:00,66.3,46.0,30.17,East,83,2.0,8.0,48,0.00,,,0.00,VWS V14.01,2013-02-16 23:17:00,
2013-02-16 15:22:00,66.4,46.1,30.17,NNW,340,0.0,8.0,48,0.00,,,0.00,VWS V14.01,2013-02-16 23:22:00,
2013-02-16 15:27:00,66.6,45.8,30.17,NW,305,0.0,8.0,47,0.00,,,0.00,VWS V14.01,2013-02-16 23:27:00,
2013-02-16 15:32:00,67.0,46.1,30.17,North,1,1.0,2.0,47,0.00,,,0.00,VWS V14.01,2013-02-16 23:32:00,
2013-02-16 15:37:00,67.4,46.5,30.16,NNE,33,0.0,4.0,47,0.00,,,0.00,VWS V14.01,2013-02-16 23:37:00,
2013-02-16 15:42:00,67.7,46.2,30.16,NE,36,1.0,4.0,46,0.00,,,0.00,VWS V14.01,2013-02-16 23:42:00,
2013-02-16 15:47:00,67.6,46.7,30.16,NNE,22,3.0,4.0,47,0.00,,,0.00,VWS V14.01,2013-02-16 23:47:00,
2013-02-16 15:52:00,67.5,46.6,30.16,ENE,74,2.0,4.0,47,0.00,,,0.00,VWS V14.01,2013-02-16 23:52:00,
2013-02-16 15:57:00,67.4,46.5,30.16,NW,323,0.0,4.0,47,0.00,,,0.00,VWS V14.01,2013-02-16 23:57:00,
2013-02-16 16:02:00,67.1,46.8,30.16,ENE,68,0.0,4.0,48,0.00,,,0.00,VWS V14.01,2013-02-17 00:02:00,
2013-02-16 16:07:00,66.9,46.6,30.16,NE,39,2.0,4.0,48,0.00,,,0.00,VWS V14.01,2013-02-17 00:07:00,
2013-02-16 16:11:00,66.7,47.0,30.16,NE,49,1.0,4.0,49,0.00,,,0.00,VWS V14.01,2013-02-17 00:11:00,
2013-02-16 16:16:00,66.4,47.2,30.16,NNE,13,0.0,4.0,50,0.00,,,0.00,VWS V14.01,2013-02-17 00:16:00,
2013-02-16 16:21:00,66.6,47.4,30.16,NE,47,0.0,4.0,50,0.00,,,0.00,VWS V14.01,2013-02-17 00:21:00,
2013-02-16 16:26:00,66.8,46.5,30.15,NNE,16,1.0,4.0,48,0.00,,,0.00,VWS V14.01,2013-02-17 00:26:00,
2013-02-16 16:31:00,67.2,45.7,30.15,WNW,295,0.0,1.0,46,0.00,,,0.00,VWS V14.01,2013-02-17 00:31:00,
2013-02-16 16:36:00,67.3,45.8,30.15,WNW,295,0.0,1.0,46,0.00,,,0.00,VWS V14.01,2013-02-17 00:36:00,
2013-02-16 16:41:00,67.3,45.8,30.15,WNW,290,0.0,2.0,46,0.00,,,0.00,VWS V14.01,2013-02-17 00:41:00,
2013-02-16 16:46:00,67.0,45.6,30.15,WNW,302,0.0,2.0,46,0.00,,,0.00,VWS V14.01,2013-02-17 00:46:00,
2013-02-16 16:51:00,66.9,45.5,30.15,West,267,0.0,2.0,46,0.00,,,0.00,VWS V14.01,2013-02-17 00:51:00,
2013-02-16 16:56:00,66.7,45.3,30.15,WNW,285,0.0,2.0,46,0.00,,,0.00,VWS V14.01,2013-02-17 00:56:00,
2013-02-16 17:01:00,66.3,44.9,30.15,West,281,0.0,2.0,46,0.00,,,0.00,VWS V14.01,2013-02-17 01:01:00,
2013-02-16 17:06:00,66.0,44.7,30.15,West,263,0.0,2.0,46,0.00,,,0.00,VWS V14.01,2013-02-17 01:06:00,
2013-02-16 17:11:00,65.8,45.0,30.15,WSW,255,1.0,2.0,47,0.00,,,0.00,VWS V14.01,2013-02-17 01:11:00,
2013-02-16 17:16:00,65.3,45.1,30.15,WSW,255,0.0,2.0,48,0.00,,,0.00,VWS V14.01,2013-02-17 01:16:00,
2013-02-16 17:21:00,64.7,44.6,30.15,WSW,255,0.0,2.0,48,0.00,,,0.00,VWS V14.01,2013-02-17 01:21:00,
2013-02-16 17:26:00,64.1,45.1,30.15,WSW,254,0.0,2.0,50,0.00,,,0.00,VWS V14.01,2013-02-17 01:26:00,
2013-02-16 17:31:00,63.3,45.4,30.15,WSW,255,0.0,0.0,52,0.00,,,0.00,VWS V14.01,2013-02-17 01:31:00,
2013-02-16 17:36:00,62.5,45.7,30.15,WSW,255,0.0,0.0,54,0.00,,,0.00,VWS V14.01,2013-02-17 01:36:00,
2013-02-16 17:41:00,61.7,45.4,30.15,WSW,255,0.0,0.0,55,0.00,,,0.00,VWS V14.01,2013-02-17 01:41:00,
2013-02-16 17:46:00,60.8,45.5,30.15,WSW,255,0.0,0.0,57,0.00,,,0.00,VWS V14.01,2013-02-17 01:46:00,
2013-02-16 17:51:00,59.7,45.4,30.15,WSW,255,0.0,0.0,59,0.00,,,0.00,VWS V14.01,2013-02-17 01:51:00,
2013-02-16 17:56:00,58.9,45.5,30.15,WSW,255,0.0,0.0,61,0.00,,,0.00,VWS V14.01,2013-02-17 01:56:00,
2013-02-16 18:01:00,58.0,45.1,30.15,WSW,255,0.0,0.0,62,0.00,,,0.00,VWS V14.01,2013-02-17 02:01:00,
2013-02-16 18:06:00,57.1,45.0,30.15,WSW,255,0.0,0.0,64,0.00,,,0.00,VWS V14.01,2013-02-17 02:06:00,
2013-02-16 18:11:00,56.5,45.3,30.15,WSW,255,0.0,0.0,66,0.00,,,0.00,VWS V14.01,2013-02-17 02:11:00,
2013-02-16 18:16:00,56.0,45.2,30.15,WSW,255,0.0,0.0,67,0.00,,,0.00,VWS V14.01,2013-02-17 02:16:00,
2013-02-16 18:21:00,55.6,45.2,30.15,WSW,255,0.0,0.0,68,0.00,,,0.00,VWS V14.01,2013-02-17 02:21:00,
2013-02-16 18:26:00,55.1,45.1,30.15,WSW,255,0.0,0.0,69,0.00,,,0.00,VWS V14.01,2013-02-17 02:26:00,
2013-02-16 18:31:00,54.6,44.7,30.15,WSW,255,0.0,0.0,69,0.00,,,0.00,VWS V14.01,2013-02-17 02:31:00,
2013-02-16 18:36:00,54.1,44.5,30.15,WSW,255,0.0,0.0,70,0.00,,,0.00,VWS V14.01,2013-02-17 02:36:00,
2013-02-16 18:41:00,53.9,44.7,30.14,SE,132,0.0,1.0,71,0.00,,,0.00,VWS V14.01,2013-02-17 02:41:00,
2013-02-16 18:46:00,53.7,44.5,30.14,SE,134,0.0,1.0,71,0.00,,,0.00,VWS V14.01,2013-02-17 02:46:00,
2013-02-16 18:51:00,53.5,44.0,30.14,SE,134,0.0,1.0,70,0.00,,,0.00,VWS V14.01,2013-02-17 02:51:00,
2013-02-16 18:56:00,53.1,44.0,30.14,SE,134,0.0,1.0,71,0.00,,,0.00,VWS V14.01,2013-02-17 02:56:00,
2013-02-16 19:01:00,52.7,43.2,30.15,SE,134,0.0,0.0,70,0.00,,,0.00,VWS V14.01,2013-02-17 03:01:00,
2013-02-16 19:06:00,52.4,43.3,30.15,SE,134,0.0,0.0,71,0.00,,,0.00,VWS V14.01,2013-02-17 03:06:00,
2013-02-16 19:11:00,52.1,43.4,30.14,SE,134,0.0,0.0,72,0.00,,,0.00,VWS V14.01,2013-02-17 03:11:00,
2013-02-16 19:16:00,51.9,43.2,30.15,SE,134,0.0,0.0,72,0.00,,,0.00,VWS V14.01,2013-02-17 03:16:00,
2013-02-16 19:21:00,51.5,43.1,30.15,SE,132,0.0,0.0,73,0.00,,,0.00,VWS V14.01,2013-02-17 03:21:00,
2013-02-16 19:26:00,51.3,43.3,30.14,SE,132,0.0,0.0,74,0.00,,,0.00,VWS V14.01,2013-02-17 03:26:00,
2013-02-16 19:31:00,51.3,43.3,30.14,East,97,0.0,1.0,74,0.00,,,0.00,VWS V14.01,2013-02-17 03:31:00,
2013-02-16 19:36:00,51.3,43.0,30.14,SE,131,0.0,1.0,73,0.00,,,0.00,VWS V14.01,2013-02-17 03:36:00,
2013-02-16 19:41:00,51.2,42.9,30.14,SE,131,0.0,1.0,73,0.00,,,0.00,VWS V14.01,2013-02-17 03:41:00,
2013-02-16 19:46:00,51.0,42.7,30.14,ESE,117,0.0,1.0,73,0.00,,,0.00,VWS V14.01,2013-02-17 03:46:00,
2013-02-16 19:51:00,50.7,42.4,30.14,ESE,117,0.0,1.0,73,0.00,,,0.00,VWS V14.01,2013-02-17 03:51:00,
2013-02-16 19:56:00,50.4,42.4,30.14,ESE,118,0.0,1.0,74,0.00,,,0.00,VWS V14.01,2013-02-17 03:56:00,
2013-02-16 20:01:00,50.1,42.2,30.14,ESE,118,0.0,0.0,74,0.00,,,0.00,VWS V14.01,2013-02-17 04:01:00,
2013-02-16 20:06:00,49.7,42.1,30.14,ESE,117,0.0,0.0,75,0.00,,,0.00,VWS V14.01,2013-02-17 04:06:00,
2013-02-16 20:11:00,49.4,41.8,30.14,ESE,123,0.0,0.0,75,0.00,,,0.00,VWS V14.01,2013-02-17 04:11:00,
2013-02-16 20:16:00,49.1,41.5,30.14,ESE,122,0.0,0.0,75,0.00,,,0.00,VWS V14.01,2013-02-17 04:16:00,
2013-02-16 20:21:00,48.7,41.5,30.14,ESE,122,0.0,0.0,76,0.00,,,0.00,VWS V14.01,2013-02-17 04:21:00,
2013-02-16 20:26:00,48.3,41.1,30.14,ESE,123,0.0,0.0,76,0.00,,,0.00,VWS V14.01,2013-02-17 04:26:00,
2013-02-16 20:31:00,48.1,40.9,30.14,ESE,122,0.0,0.0,76,0.00,,,0.00,VWS V14.01,2013-02-17 04:31:00,
2013-02-16 20:36:00,48.2,41.0,30.14,ESE,123,0.0,0.0,76,0.00,,,0.00,VWS V14.01,2013-02-17 04:36:00,
2013-02-16 20:41:00,48.1,40.6,30.14,ESE,122,0.0,0.0,75,0.00,,,0.00,VWS V14.01,2013-02-17 04:41:00,
2013-02-16 20:46:00,48.0,40.5,30.14,ESE,123,0.0,0.0,75,0.00,,,0.00,VWS V14.01,2013-02-17 04:46:00,
2013-02-16 20:51:00,47.8,40.3,30.14,ESE,122,0.0,0.0,75,0.00,,,0.00,VWS V14.01,2013-02-17 04:51:00,
2013-02-16 20:56:00,47.5,40.3,30.14,ESE,123,0.0,0.0,76,0.00,,,0.00,VWS V14.01,2013-02-17 04:56:00,
2013-02-16 21:00:00,47.3,40.1,30.14,ESE,123,0.0,0.0,76,0.00,,,0.00,VWS V14.01,2013-02-17 05:00:00,
2013-02-16 21:05:00,47.1,40.3,30.14,ESE,122,0.0,0.0,77,0.00,,,0.00,VWS V14.01,2013-02-17 05:05:00,
2013-02-16 21:10:00,47.0,40.2,30.14,ESE,122,0.0,0.0,77,0.00,,,0.00,VWS V14.01,2013-02-17 05:10:00,
2013-02-16 21:15:00,46.8,40.0,30.14,ESE,122,0.0,0.0,77,0.00,,,0.00,VWS V14.01,2013-02-17 05:15:00,
2013-02-16 21:20:00,46.7,40.2,30.14,ESE,123,0.0,0.0,78,0.00,,,0.00,VWS V14.01,2013-02-17 05:20:00,
2013-02-16 21:25:00,46.8,40.3,30.14,ESE,122,0.0,0.0,78,0.00,,,0.00,VWS V14.01,2013-02-17 05:25:00,
2013-02-16 21:30:00,47.0,40.5,30.14,ESE,122,0.0,0.0,78,0.00,,,0.00,VWS V14.01,2013-02-17 05:30:00,
2013-02-16 21:35:00,46.9,40.4,30.14,ESE,123,0.0,0.0,78,0.00,,,0.00,VWS V14.01,2013-02-17 05:35:00,
2013-02-16 21:40:00,46.8,40.3,30.14,ESE,123,0.0,0.0,78,0.00,,,0.00,VWS V14.01,2013-02-17 05:40:00,
2013-02-16 21:45:00,46.7,40.2,30.14,ESE,123,0.0,0.0,78,0.00,,,0.00,VWS V14.01,2013-02-17 05:45:00,
2013-02-16 21:50:00,46.5,40.3,30.14,ESE,123,0.0,0.0,79,0.00,,,0.00,VWS V14.01,2013-02-17 05:50:00,
2013-02-16 21:55:00,46.3,40.2,30.14,ESE,122,0.0,0.0,79,0.00,,,0.00,VWS V14.01,2013-02-17 05:55:00,
2013-02-16 22:00:00,46.0,39.9,30.14,ESE,122,0.0,0.0,79,0.00,,,0.00,VWS V14.01,2013-02-17 06:00:00,
2013-02-16 22:05:00,45.6,39.8,30.15,ESE,123,0.0,0.0,80,0.00,,,0.00,VWS V14.01,2013-02-17 06:05:00,
2013-02-16 22:10:00,45.3,39.8,30.14,ESE,122,0.0,0.0,81,0.00,,,0.00,VWS V14.01,2013-02-17 06:10:00,
2013-02-16 22:15:00,45.2,40.0,30.14,ESE,123,0.0,0.0,82,0.00,,,0.00,VWS V14.01,2013-02-17 06:15:00,
2013-02-16 22:20:00,45.1,39.9,30.14,ESE,123,0.0,0.0,82,0.00,,,0.00,VWS V14.01,2013-02-17 06:20:00,
2013-02-16 22:25:00,45.0,39.8,30.14,ESE,122,0.0,0.0,82,0.00,,,0.00,VWS V14.01,2013-02-17 06:25:00,
2013-02-16 22:30:00,44.9,39.8,30.14,ESE,123,0.0,1.0,82,0.00,,,0.00,VWS V14.01,2013-02-17 06:30:00,
2013-02-16 22:35:00,44.7,39.9,30.14,SE,124,0.0,1.0,83,0.00,,,0.00,VWS V14.01,2013-02-17 06:35:00,
2013-02-16 22:40:00,44.5,39.7,30.14,SE,124,0.0,1.0,83,0.00,,,0.00,VWS V14.01,2013-02-17 06:40:00,
2013-02-16 22:45:00,44.1,39.3,30.14,SE,124,0.0,1.0,83,0.00,,,0.00,VWS V14.01,2013-02-17 06:45:00,
2013-02-16 22:50:00,43.8,39.3,30.14,SE,124,0.0,1.0,84,0.00,,,0.00,VWS V14.01,2013-02-17 06:50:00,
2013-02-16 22:55:00,43.5,39.0,30.13,SE,124,0.0,1.0,84,0.00,,,0.00,VWS V14.01,2013-02-17 06:55:00,
2013-02-16 23:00:00,43.1,38.9,30.13,SE,124,0.0,0.0,85,0.00,,,0.00,VWS V14.01,2013-02-17 07:00:00,
2013-02-16 23:05:00,43.0,38.8,30.13,SE,124,0.0,0.0,85,0.00,,,0.00,VWS V14.01,2013-02-17 07:05:00,
2013-02-16 23:10:00,42.8,38.9,30.13,SE,124,0.0,0.0,86,0.00,,,0.00,VWS V14.01,2013-02-17 07:10:00,
2013-02-16 23:15:00,42.7,38.8,30.14,SE,124,0.0,0.0,86,0.00,,,0.00,VWS V14.01,2013-02-17 07:15:00,
2013-02-16 23:20:00,42.6,38.7,30.14,SE,124,0.0,0.0,86,0.00,,,0.00,VWS V14.01,2013-02-17 07:20:00,
2013-02-16 23:25:00,42.6,39.0,30.13,SE,124,0.0,0.0,87,0.00,,,0.00,VWS V14.01,2013-02-17 07:25:00,
2013-02-16 23:30:00,42.6,38.7,30.13,SE,124,0.0,0.0,86,0.00,,,0.00,VWS V14.01,2013-02-17 07:30:00,
2013-02-16 23:35:00,42.5,38.6,30.13,SE,124,0.0,0.0,86,0.00,,,0.00,VWS V14.01,2013-02-17 07:35:00,
2013-02-16 23:40:00,42.5,38.9,30.13,SE,124,0.0,0.0,87,0.00,,,0.00,VWS V14.01,2013-02-17 07:40:00,
2013-02-16 23:45:00,42.5,38.6,30.13,SE,124,0.0,0.0,86,0.00,,,0.00,VWS V14.01,2013-02-17 07:45:00,
2013-02-16 23:50:00,42.4,38.5,30.13,SE,124,0.0,0.0,86,0.00,,,0.00,VWS V14.01,2013-02-17 07:50:00,
2013-02-16 23:55:00,42.2,38.3,30.13,SE,124,0.0,0.0,86,0.00,,,0.00,VWS V14.01,2013-02-17 07:55:00,